Location: 相模原市立博物館
(35.5593°N, 139.3931°E)
Time: 05:12:08
(UTC+09:00)

X-37B - Pass Details

Date: 27 October 2021
Orbit: 330 x 341 km, 45.0° (Epoch: 20 November)

Event Time Altitude Azimuth Distance (km) Brightness Sun altitude
Rises 18:33:03 0° 295° (WNW) 2,123 5.4 -21.0°
Reaches altitude 10° 18:35:08 10° 287° (WNW) 1,281 4.2 -21.4°
Enters shadow 18:37:20 35° 244° (WSW) 572 1.9 -21.8°
